Regional Weather Roundup
Issued by NWS

Home | Current Version | Previous Version | Graphics & Text | Print | Product List | Glossary On
Versions: 1 2 3 4 5 6 7 8 9 10 11 12 13 14 15 16 17 18 19 20 21 22 23 24 25 26 27 28 29 30 31 32 33 34 35 36 37 38 39 40 41 42 43 44 45 46 47 48 49 50
000
ASUS43 KBIS 310910
RWRND

NORTH DAKOTA REGIONAL WEATHER ROUNDUP
NATIONAL WEATHER SERVICE BISMARCK ND
400 AM CDT THU JUL 31 2014

NOTE: "FAIR" INDICATES FEW OR NO CLOUDS BELOW 12,000 FEET WITH NO
SIGNIFICANT WEATHER AND/OR OBSTRUCTIONS TO VISIBILITY.


NDZ001>003-009>011-017-311000-
NORTHWEST NORTH DAKOTA

CITY           SKY/WX    TMP DP  RH WIND       PRES   REMARKS
WILLISTON      LGT RAIN  64  59  83 S10       30.08F
MINOT          PTCLDY    57  51  80 CALM      30.10S
MINOT AFB      PTCLDY    55  55  99 W8        30.09F
$$

NDZ018>021-031>035-040>046-311000-
SOUTHWEST NORTH DAKOTA

CITY           SKY/WX    TMP DP  RH WIND       PRES   REMARKS
BISMARCK       PTCLDY    61  57  87 CALM      30.12R
DICKINSON      MOCLDY    56  52  86 CALM      30.15S
GARRISON         N/A     57  55  93 NW6       30.11F
HETTINGER ARPT CLEAR     51  48  89 NW3       30.14S
$$

NDZ004>008-012>016-024-026-027-054-311000-
NORTHEAST NORTH DAKOTA

CITY           SKY/WX    TMP DP  RH WIND       PRES   REMARKS
GRAND FORKS    PTCLDY    58  56  93 CALM      30.02S
GRND FRKS AFB  PTCLDY    59  58  99 SW5       30.04S
DEVILS LAKE    CLEAR     61  55  82 CALM      30.07R
$$

NDZ022-023-025-028>030-036>039-047>053-311000-
SOUTHEAST NORTH DAKOTA

CITY           SKY/WX    TMP DP  RH WIND       PRES   REMARKS
FARGO          CLEAR     57  54  89 CALM      30.04S
JAMESTOWN      CLEAR     59  54  83 CALM      30.08S
$$



USA.gov is the U.S. government's official web portal to all federal, state and local government web resources and services.